Terminal Aerodrome Forecast
Issued by NWS Grand Forks, ND

Home | Current Version | Previous Version | Graphics & Text | Print | Product List | Glossary On
Versions: 1 2 3 4 5 6 7 8 9 10 11 12 13 14 15 16
099
FTUS43 KFGF 200827 AAA
TAFGFK
TAF AMD
KGFK 200827Z 2008/2106 17009KT 3SM BR OVC002
      TEMPO 2008/2011 3/4SM BR
     FM201300 15008KT 1/2SM FG BKN003
     FM201700 16008KT 3/4SM BR OVC003
     FM201800 16008KT P6SM OVC003=

USA.gov is the U.S. government's official web portal to all federal, state and local government web resources and services.